CZ-3B DEB, 40183

Orbit data source: Space-Track

CZ-3B DEB, 40183 is space debris in HEO originally from a launch on Mon, 19 Dec 2011 UTC launched from the Xichang Space Center, China (XSC). Debris objects in space refer to the collection of defunct objects orbiting the Earth. Examples of debris include non-operational satellites, rocket bodies, and fragments generated from explosions, collisions, or faulty payload assembly.

Loading next visibility...
Identifier
40183, 2011-077G
Orbit
HEO
Country
Flag of CNCN / PRC
Related business
Manufacturer
CALT
Mission
Spacecraft
Bus & Motor
Unknown
Mass
Unknown
Launch date (UTC)
2011-12-19 (14 years ago)
Launch vehicle
Unknown
Launch site
Xichang Space Center, China (XSC)
Object type
Payload
Rocket body
Debris
Shape & HBR
Unknown shape, 0.2 m
Radar Cross Section
Medium (>0.1 m² and <1 m²)

Expand to show TLE details & history
Last TLE update: 10 hours ago

TLE from 10 hours ago
0 CZ-3B DEB
1 40183U 11077G   25290.83383170  .00000426  00000-0  60873-2 0  9991
2 40183  22.0597 349.0569 7543239 190.7420 131.1652  1.85770123 76764
Epoch: 2025-10-17T20:00Z
TLE epoch observation values (Epoch: 2025-10-17T20:00:43.058Z)
Latitude
0.00001°
Longitude
22.30004°
Altitude
40,144.869 km
Speed
1.696 km/s
True Right ascension
23h 16m 12s
True Declination
0° 00' 00"
Sunlit
Object was in daylight at epoch
Visualization orbit readout
Latitude
Unknown
Longitude
Unknown
Altitude
Unknown
Speed
Unknown
Apparent Right ascension
Unknown
Apparent Declination
Unknown
Sunlit
N/A
Visualization observer readout
Local Sidereal Time
01:08:16
Azimuth
Unknown
Elevation
Unknown
Doppler factor
Unknown
Orbital elements
Apogee altitude
42,667.027 km
Perigee altitude
490.164 km
Semi-major axis
27,956.732 km
Eccentricity
0.75432
Inclination
22.0597°
RAAN
349.0569°
Arg. of periapsis
190.742°
True anomaly
169.21015°
Mean anomaly
131.1652°
Eccentric anomaly
151.67301°
Mean motion
0.46432 °/min
Orbital period
775.33 mins
BSTAR
0.0060873
Loading maneuver chart data...
Computing Atmospheric mass density...
Loading historical data...
Loading historical data...
Loading historical data...
Loading historical data...
Loading historical data...
Loading historical data...
Loading historical data...

Documentation

Showing up to 5 results
|